EN

Hourly Weather Bolshie Shidy

Today, 25 October, Sunday

Time Temperature Precipitation Wind Pressure Humidity
00:00 +6°C° 0 mm 2 mps 744 mmHg 97%
01:00 +6°C° 0 mm 2 mps 744 mmHg 98%
02:00 +6°C° 0 mm 2 mps 745 mmHg 98%
03:00 +5°C° 0 mm 2 mps 745 mmHg 98%
04:00 +5°C° 0 mm 2 mps 745 mmHg 98%
05:00 +5°C° 0 mm 2 mps 746 mmHg 97%
06:00 +5°C° 0 mm 2 mps 746 mmHg 97%
07:00 +5°C° 0 mm 2 mps 746 mmHg 97%
08:00 +6°C° 0 mm 2 mps 746 mmHg 96%
09:00 +6°C° 0 mm 2 mps 746 mmHg 96%
10:00 +7°C° 0 mm 1 mps 747 mmHg 95%
11:00 +8°C° 0 mm 1 mps 746 mmHg 94%
12:00 +8°C° 0 mm 1 mps 746 mmHg 94%
13:00 +8°C° 0 mm 1 mps 746 mmHg 93%
14:00 +8°C° 0 mm 1 mps 746 mmHg 94%
15:00 +8°C° 0 mm 1 mps 745 mmHg 95%
16:00 +8°C° 0 mm 1 mps 745 mmHg 95%
17:00 +6°C° 0.1 mm 0 mps 745 mmHg 95%
18:00 +6°C° 0.1 mm 0 mps 744 mmHg 95%
19:00 +6°C° 0.1 mm 0 mps 744 mmHg 94%
20:00 +7°C° 0.7 mm 1 mps 743 mmHg 95%
21:00 +7°C° 0.7 mm 1 mps 743 mmHg 96%
22:00 +6°C° 0.7 mm 2 mps 743 mmHg 97%
23:00 +5°C° 1.1 mm 2 mps 743 mmHg 96%

Tomorrow, 26 October, Monday

Time Temperature Precipitation Wind Pressure Humidity
00:00 +5°C° 1.1 mm 2 mps 742 mmHg 96%
01:00 +4°C° 1.1 mm 3 mps 742 mmHg 95%
02:00 +3°C° 0.7 mm 3 mps 742 mmHg 96%
03:00 +3°C° 0.7 mm 3 mps 742 mmHg 96%
04:00 +3°C° 0.7 mm 4 mps 743 mmHg 96%
05:00 +1°C° 0.2 mm 4 mps 743 mmHg 95%
06:00 +1°C° 0.2 mm 4 mps 743 mmHg 94%
07:00 +1°C° 0.2 mm 4 mps 744 mmHg 93%
08:00 +1°C° 0.1 mm 5 mps 744 mmHg 90%
09:00 0°C° 0.1 mm 5 mps 745 mmHg 87%
10:00 -2°C° 0.1 mm 6 mps 745 mmHg 85%
11:00 -2°C° 0 mm 6 mps 746 mmHg 82%
12:00 -2°C° 0 mm 6 mps 746 mmHg 80%
13:00 -3°C° 0 mm 6 mps 746 mmHg 78%
14:00 -2°C° 0.1 mm 5 mps 746 mmHg 80%
15:00 -1°C° 0.1 mm 5 mps 747 mmHg 82%
16:00 -1°C° 0.1 mm 5 mps 747 mmHg 84%
17:00 -2°C° 0.2 mm 5 mps 747 mmHg 84%
18:00 -2°C° 0.2 mm 5 mps 747 mmHg 85%
19:00 -4°C° 0.2 mm 6 mps 748 mmHg 85%
20:00 -4°C° 0.1 mm 6 mps 748 mmHg 86%
21:00 -3°C° 0.1 mm 6 mps 748 mmHg 86%
22:00 -3°C° 0.1 mm 6 mps 749 mmHg 87%
23:00 -3°C° 0 mm 6 mps 749 mmHg 85%

Day after tomorrow, 27 October, Tuesday

Time Temperature Precipitation Wind Pressure Humidity
00:00 -4°C° 0 mm 6 mps 750 mmHg 84%
01:00 -4°C° 0 mm 7 mps 750 mmHg 83%
02:00 -4°C° 0 mm 6 mps 751 mmHg 82%
03:00 -4°C° 0 mm 6 mps 751 mmHg 82%
04:00 -4°C° 0 mm 6 mps 752 mmHg 82%
05:00 -4°C° 0 mm 6 mps 752 mmHg 81%
06:00 -4°C° 0 mm 6 mps 753 mmHg 81%
07:00 -4°C° 0 mm 6 mps 753 mmHg 81%
08:00 -4°C° 0 mm 6 mps 754 mmHg 80%
09:00 -3°C° 0 mm 6 mps 754 mmHg 78%
10:00 -3°C° 0 mm 6 mps 755 mmHg 77%
11:00 -3°C° 0 mm 6 mps 755 mmHg 76%
12:00 -2°C° 0 mm 5 mps 756 mmHg 76%
13:00 -1°C° 0 mm 5 mps 756 mmHg 75%
14:00 -1°C° 0 mm 5 mps 757 mmHg 75%
15:00 -2°C° 0 mm 5 mps 757 mmHg 75%
16:00 -2°C° 0 mm 5 mps 758 mmHg 76%
17:00 -2°C° 0 mm 4 mps 759 mmHg 79%
18:00 -3°C° 0 mm 4 mps 759 mmHg 82%
19:00 -2°C° 0 mm 3 mps 760 mmHg 84%
20:00 -2°C° 0 mm 3 mps 760 mmHg 86%
21:00 -3°C° 0 mm 2 mps 760 mmHg 87%
22:00 -3°C° 0 mm 2 mps 761 mmHg 88%
23:00 -3°C° 0 mm 2 mps 761 mmHg 89%

28 October, Wednesday

Time Temperature Precipitation Wind Pressure Humidity
00:00 -3°C° 0 mm 2 mps 761 mmHg 89%
01:00 -2°C° 0 mm 1 mps 762 mmHg 90%
02:00 -2°C° 0 mm 1 mps 762 mmHg 90%
03:00 -2°C° 0 mm 1 mps 762 mmHg 89%
04:00 -2°C° 0 mm 1 mps 763 mmHg 89%
05:00 -2°C° 0 mm 1 mps 763 mmHg 88%
06:00 -2°C° 0 mm 1 mps 764 mmHg 87%
07:00 -2°C° 0 mm 1 mps 764 mmHg 87%
08:00 -1°C° 0 mm 1 mps 764 mmHg 80%
09:00 0°C° 0 mm 1 mps 765 mmHg 74%
10:00 0°C° 0 mm 0 mps 765 mmHg 68%
11:00 0°C° 0 mm 0 mps 765 mmHg 64%
12:00 +1°C° 0 mm 0 mps 765 mmHg 60%
13:00 +2°C° 0 mm 0 mps 765 mmHg 56%
14:00 +1°C° 0 mm 0 mps 765 mmHg 60%
15:00 +1°C° 0 mm 0 mps 765 mmHg 64%
16:00 0°C° 0 mm 0 mps 765 mmHg 68%
17:00 0°C° 0 mm 0 mps 766 mmHg 70%
18:00 -1°C° 0 mm 0 mps 766 mmHg 72%
19:00 -1°C° 0 mm 0 mps 766 mmHg 75%
20:00 -1°C° 0 mm 0 mps 766 mmHg 75%
21:00 -1°C° 0 mm 0 mps 766 mmHg 75%
22:00 0°C° 0 mm 1 mps 766 mmHg 75%
23:00 -1°C° 0 mm 1 mps 766 mmHg 76%

29 October, Thursday

Time Temperature Precipitation Wind Pressure Humidity
00:00 -1°C° 0 mm 1 mps 766 mmHg 77%
01:00 -1°C° 0 mm 1 mps 766 mmHg 78%
02:00 -1°C° 0 mm 1 mps 766 mmHg 79%
03:00 -3°C° 0 mm 2 mps 766 mmHg 80%
04:00 -3°C° 0 mm 2 mps 766 mmHg 81%
05:00 -3°C° 0 mm 2 mps 766 mmHg 81%
06:00 -2°C° 0 mm 2 mps 766 mmHg 81%
07:00 -2°C° 0 mm 2 mps 766 mmHg 80%
08:00 -2°C° 0 mm 3 mps 766 mmHg 77%
09:00 -1°C° 0 mm 3 mps 766 mmHg 74%
10:00 -1°C° 0 mm 4 mps 766 mmHg 70%
11:00 0°C° 0 mm 4 mps 766 mmHg 68%
12:00 +1°C° 0 mm 4 mps 766 mmHg 66%
13:00 +3°C° 0 mm 4 mps 766 mmHg 64%
14:00 +1°C° 0 mm 4 mps 766 mmHg 67%
15:00 +2°C° 0 mm 3 mps 766 mmHg 70%
16:00 +1°C° 0 mm 3 mps 766 mmHg 74%
17:00 0°C° 0 mm 3 mps 766 mmHg 77%
18:00 0°C° 0 mm 3 mps 766 mmHg 79%
19:00 -1°C° 0 mm 3 mps 766 mmHg 82%
20:00 -1°C° 0 mm 3 mps 766 mmHg 83%
21:00 -1°C° 0 mm 2 mps 766 mmHg 84%
22:00 -2°C° 0 mm 2 mps 766 mmHg 86%
23:00 -2°C° 0 mm 2 mps 766 mmHg 86%

30 October, Friday

Time Temperature Precipitation Wind Pressure Humidity
00:00 -2°C° 0 mm 2 mps 766 mmHg 87%
01:00 -2°C° 0 mm 2 mps 766 mmHg 88%
02:00 -2°C° 0 mm 2 mps 766 mmHg 88%
03:00 -2°C° 0 mm 2 mps 766 mmHg 87%
04:00 -2°C° 0 mm 2 mps 766 mmHg 87%
05:00 -2°C° 0 mm 2 mps 766 mmHg 87%
06:00 -2°C° 0 mm 2 mps 766 mmHg 86%
07:00 -2°C° 0 mm 2 mps 766 mmHg 86%
08:00 -1°C° 0 mm 3 mps 766 mmHg 81%
09:00 0°C° 0 mm 3 mps 766 mmHg 76%
10:00 +1°C° 0 mm 3 mps 766 mmHg 72%
11:00 +2°C° 0 mm 3 mps 765 mmHg 69%
12:00 +1°C° 0 mm 4 mps 765 mmHg 66%
13:00 +3°C° 0 mm 4 mps 765 mmHg 64%
14:00 +3°C° 0 mm 3 mps 765 mmHg 68%
15:00 +2°C° 0 mm 3 mps 765 mmHg 71%
16:00 +2°C° 0 mm 3 mps 765 mmHg 75%
17:00 +1°C° 0 mm 3 mps 765 mmHg 77%
18:00 +1°C° 0 mm 3 mps 764 mmHg 78%
19:00 0°C° 0 mm 3 mps 764 mmHg 80%
20:00 0°C° 0 mm 3 mps 764 mmHg 79%
21:00 0°C° 0 mm 3 mps 764 mmHg 78%
22:00 0°C° 0 mm 3 mps 764 mmHg 77%
23:00 0°C° 0 mm 3 mps 764 mmHg 75%
Show more